Home   Weather   Kolonia   Past weeks

Flag for Micronesia Past Weather in Kolonia, Pohnpei, Micronesia — Yesterday and Last 2 Weeks

Now
79 °F

Mostly cloudy.


Feels Like: 83 °F
Forecast: 80 / 85 °F
Wind: No wind

Location: Pohnpei

Current Time: Jan 22, 2017 at 4:40:32 am

Latest Report: Jan 22, 2017 at 3:50 am


Visibility: 15 mi

Pressure: 29.83 "Hg

Humidity: 94%

Dew Point: 77 °F

Location of KoloniaLocation

Past Weather in Kolonia — Graph

°F

Kolonia Temperature Yesterday

Maximum temperature yesterday: 85 °F (at 11:54 am)
Minimum temperature yesterday: 82 °F (at 12:56 am)
Average temperature yesterday: 83 °F

High & Low Weather Summary for the Past Weeks

 TemperatureHumidityPressure
High91 °F (Jan 16, 2:50 pm)100% (Jan 12, 12:35 am)29.96 "Hg (Jan 12, 12:35 am)
Low74 °F (Jan 11, 3:50 am)51% (Jan 16, 12:50 pm)29.65 "Hg (Jan 7, 3:35 pm)
Average81 °F82%29.83 "Hg
* Reported Jan 7 2:55 am — Jan 22 2:51 am, Kolonia, Weather by CustomWeather, © 2017

Note: Actual official high and low records may vary slightly from our data, if they occured in-between our weather recording intervals... More about our weather records

Advertising

Kolonia Weather History for the Previous 24 Hours

Scroll right to see more
 ConditionsComfort  
Time TempWeatherWind HumidityBarometerVisibility
2:51 am
Sun, Jan 22
78 °FMostly cloudy.No wind92%29.85 "Hg15 mi
1:52 am81 °FMostly cloudy.9 mph86%29.86 "Hg15 mi
12:53 am83 °FSprinkles. Mostly cloudy.8 mph82%29.88 "Hg15 mi
11:50 pm
Sat, Jan 21
83 °FSprinkles. Mostly cloudy.3 mph82%29.88 "Hg15 mi
10:50 pm83 °FPassing clouds.7 mph85%29.89 "Hg15 mi
9:50 pm83 °FPassing clouds.7 mph82%29.90 "Hg15 mi
8:50 pm83 °FPassing clouds.7 mph81%29.89 "Hg15 mi
7:50 pm83 °FMostly cloudy.7 mph84%29.87 "Hg15 mi
6:50 pm83 °FMostly cloudy.5 mph84%29.85 "Hg15 mi
5:50 pm83 °FMostly cloudy.6 mph83%29.83 "Hg15 mi
4:50 pm83 °FMostly cloudy.3 mph85%29.82 "Hg15 mi
4:30 pm84 °FMostly cloudy.5 mph84%29.80 "Hg15 mi
3:50 pm84 °FCloudy.7 mph77%29.80 "Hg15 mi
2:53 pm85 °FCloudy.8 mph81%29.78 "Hg15 mi
1:54 pm84 °FCloudy.9 mph77%29.82 "Hg15 mi
12:53 pm85 °FCloudy.7 mph74%29.84 "Hg15 mi
11:54 am85 °FCloudy.9 mph74%29.86 "Hg15 mi
10:53 am84 °FCloudy.3 mph77%29.88 "Hg15 mi
9:54 am84 °FCloudy.6 mph73%29.89 "Hg15 mi
9:04 am82 °FSprinkles. Mostly cloudy.12 mph79%29.89 "Hg12 mi
7:53 am83 °FMore clouds than sun.6 mph77%29.86 "Hg15 mi
6:56 am83 °FMore clouds than sun.6 mph73%29.84 "Hg15 mi
5:55 am83 °FPartly cloudy.7 mph69%29.83 "Hg15 mi
4:50 am82 °FPartly cloudy.8 mph68%29.81 "Hg15 mi
Weather by CustomWeather, © 2017

See weather overviewHow to use our weather pages